Weather in Krasnopillia

Ukraine / Sumi District     50°46′12″N   35°16′33″E
В апреле 2022 года жителям России запретили посещать сайт meteo.paraplan.net по решению Генеральной прокуратуры. Аудитория сайта уменьшилась в 10 раз. Владельцы сайта не видят смысла в поддержке погодного сервера в таких условиях. Сайт будет закрыт в октябре.
temp.,
°C
wind,
m/s
gust,
m/s
humid.,
%
clouds,
%
prec.,
mm/h
press.,
hPa
HPBL,
m
25 september, sun
sun2500:00+9w61187100 0.1 1010927
03:00+8w81487100 0.4 1010890
06:00+8w91685100 1.1 10091302
09:00+9w8148052 1.1 1010883
12:00+13wnw913545 0.0 10111324
15:00+14w912495 0.0 10121617
18:00+12w611575 0.0 1013693
21:00+9wsw412716 0.0 1014302
26 september, mon
mon2600:00+8wsw487553 0.0 1015172
03:00+9wsw3771100 0.0 1015185
06:00+9sw357199 0.0 1014122
09:00+11sw357159 0.0 1015252
12:00+15wsw4656100 0.0 10141089
15:00+13wnw3567100 0.0 1014172
18:00+12sse116884 0.0 101320
21:00+11ese3472100 0.1 101397
27 september, tue
tue2700:00+10e3696100 6.7 1011217
03:00+11ese4895100 11.3 1010302
06:00+11se239595 0.3 100871
09:00+12sse1291100 0.3 1008130
12:00+14s3689100 0.1 1008380
15:00+13sse3693100 1.3 1007271
18:00+13se4896100 0.7 1006322
21:00+13ese41097100 2.5 1005341
28 september, wed
wed2800:00+13se61387100 0.8 1003434
03:00+12se4995100 2.5 1001301
06:00+12se5996100 3.8 1000295
09:00+13s51198100 6.8 999499
12:00+16wsw7983100 0.2 1000944
15:00+16wsw687996 0.3 1001994
18:00+13sw4982100 0.1 1004437
21:00+12wsw378646 0.1 1006169
29 september, thu
thu2900:00+11w34930 0.0 100762
03:00+10w22930 0.0 100914
06:00+9wsw009395 0.0 101110
09:00+12s22852 0.0 1012191
12:00+16sw22655 0.0 1013705
15:00+18ssw125196 0.0 1013959
18:00+16e2264100 0.0 101521
21:00+15ese3464100 0.0 101666